Regional Weather Roundup
Issued by NWS Newport/Morehead, NC

Current Version | Previous Version | Graphics & Text | Print | Product List | Glossary Off
Versions: 1 2 3 4 5 6 7 8 9 10 11 12 13 14 15 16 17 18 19 20 21 22 23 24 25 26 27 28 29 30 31 32 33 34 35 36 37 38 39 40 41 42 43 44 45 46 47 48 49 50

000
ASUS42 KMHX 282212
RWRMHX
WEATHER ROUNDUP FOR EASTERN NORTH CAROLINA
NATIONAL WEATHER SERVICE NEWPORT/MOREHEAD CITY NC
600 PM EDT SAT MAR 28 2015

NOTE: "FAIR" INDICATES FEW OR NO CLOUDS BELOW 12,000 FEET
WITH NO SIGNIFICANT WEATHER AND/OR OBSTRUCTIONS TO VISIBILITY

NCZ015>017-031-032-045>047-102-103-282300-
NORTH COAST

CITY           SKY/WX    TMP DP  RH WIND       PRES   REMARKS
EDENTON        CLOUDY    41  24  50 N10       30.07R
ELIZABETH CITY CLOUDY    40  24  53 NW12      30.07R
KITTY HAWK     MOCLDY    40  27  59 W13       30.06R
MANTEO         CLOUDY    40  28  61 NW10G18   30.07R

$$

NCZ045>047-081-094-103-104-282300-
CENTRAL COAST

CITY           SKY/WX    TMP DP  RH WIND       PRES   REMARKS
FRISCO         MOSUNNY   43  29  57 NW8       30.05R
SWANQUARTER      N/A     45 N/A N/A VRB3G13   30.03R

$$

NCZ095-097-098-100-101-282300-
SOUTHERN COAST

CITY           SKY/WX    TMP DP  RH WIND       PRES   REMARKS
BEAUFORT       PTSUNNY   50  28  42 NW14      30.04R
CEDAR ISLAND     N/A     46 N/A N/A NW13G21   30.06S
JACKSONVILLE   MOSUNNY   49  25  39 NW12      30.04R
PINEY ISLAND   CLOUDY   N/A N/A N/A NW12      30.04R
WILMINGTON     PTSUNNY   52  26  36 W12G21    30.04R


$$

NCZ011>013-027>030-043-044-078>080-089-090>093-098-282300-
COASTAL PLAIN

CITY           SKY/WX    TMP DP  RH WIND       PRES   REMARKS
AHOSKIE        MOSUNNY   39  20  46 N8        30.08R
CLINTON        SUNNY     49  23  36 NW9       30.07R
ELIZABETHTOWN  SUNNY     51  20  29 NW15      30.06R
GOLDSBORO      SUNNY     47  20  34 NW13      30.05R
GREENVILLE     SUNNY     45  16  31 W5G17     30.08R
HAVELOCK       MOSUNNY   49  23  36 NW13      30.05R
KENANSVILLE    MOSUNNY   47  19  32 NW10G16   30.07R
KINSTON        SUNNY     46  16  29 NW15      30.07R
NEW BERN       MOSUNNY   48  24  39 NW12      30.06R
RICHLANDS      MOSUNNY   48  25  40 NW8       30.06R
ROCKY MOUNT    SUNNY     45  14  28 W8G17     30.07R
WASHINGTON     PTSUNNY   44  22  40 NW13      30.06R
WHITEVILLE     MOSUNNY   51  24  34 W7        30.05R

$$

AMZ130-135-150-152-154-156-158-170-250-252-270-ANZ085-086-088-633-658-670-282300-
MARINE OBSERVATIONS

STATION/POSITION TIME  TEMP    WIND        PRES    WAVE   SWELL
                       AIR SEA DIR/SP/G            HT/PER HT/PER
                 (UTC) (F)     (DEG/KT/KT) (MB)    (FT/S) (FT/S)
CHESAPEAKE LIGHT 2100   38     310/ 19/ 20 1017.5
64 E VA BEACH    2150   39 57  320/ 17/ 23 1016.6    7/ 8   5/ 8
DUCK             2100   39 42  300/ 13/ 16 1016.1
2 E DUCK         2111      42                N/A     5/ 8   2/11
10 NE DUCK       NOT AVBL
OREGON INLET     2100   42 46  290/ 11/ 14 1016.9
HATTERAS CG      2100   43 54  330/ 15/ 19 1017.1
CAPE LOOKOUT     2200   49     300/ 10/ 13 1016.8
BEAUFORT LAB     2100   50 55  320/  6/ 16 1015.3
27 SE WRIGHTSVLE 2100   49 65  320/ 16/ 17 1017.9
5 SE WRIGHTSVLE  2100   53 56  300/ 14/ 17 1016.3
225 S CAPE HAT   2150   60 69  300/ 16/ 21 1016.0   11/10   8/10
41 SE CHARLESTON 2150   56 68  290/ 16/ 21 1017.3    4/ 7   2/ 7

$$



USA.gov is the U.S. government's official web portal to all federal, state and local government web resources and services.